TimeEDT,TemperatureF,Dew PointF,Humidity,Sea Level PressureIn,VisibilityMPH,Wind Direction,Wind SpeedMPH,Gust SpeedMPH,PrecipitationIn,Events,Conditions,WindDirDegrees,DateUTC
12:15 AM,62.8,55.6,77,29.91,10.0,Calm,Calm,-,N/A,,Clear,0,2012-10-06 04:15:00
12:35 AM,62.1,55.0,78,29.91,10.0,North,9.2,-,N/A,,Scattered Clouds,350,2012-10-06 04:35:00
12:55 AM,59.9,54.1,81,29.91,10.0,NNW,5.8,-,N/A,,Scattered Clouds,330,2012-10-06 04:55:00
1:15 AM,58.8,53.2,82,29.90,10.0,NNW,3.5,-,N/A,,Scattered Clouds,330,2012-10-06 05:15:00
1:35 AM,58.1,52.9,83,29.91,10.0,NNW,6.9,-,N/A,,Scattered Clouds,340,2012-10-06 05:35:00
1:55 AM,56.7,51.8,84,29.91,10.0,NNW,8.1,-,N/A,,Overcast,330,2012-10-06 05:55:00
2:15 AM,56.1,51.1,83,29.94,10.0,NW,12.7,17.3,N/A,,Overcast,310,2012-10-06 06:15:00
2:35 AM,53.4,47.1,79,29.94,10.0,NNW,9.2,24.2,N/A,,Overcast,340,2012-10-06 06:35:00
2:55 AM,50.9,45.9,83,29.96,10.0,NW,10.4,19.6,N/A,,Overcast,310,2012-10-06 06:55:00
3:15 AM,49.5,44.8,84,29.98,10.0,NW,10.4,18.4,N/A,,Overcast,320,2012-10-06 07:15:00
3:35 AM,47.5,43.7,87,29.98,7.0,WNW,5.8,18.4,N/A,,Drizzle,300,2012-10-06 07:35:00
3:55 AM,46.6,43.9,90,29.94,5.0,East,5.8,-,N/A,Rain,Heavy Rain,90,2012-10-06 07:55:00
4:15 AM,46.6,44.8,93,29.97,10.0,WNW,4.6,-,N/A,Rain,Light Rain,300,2012-10-06 08:15:00
4:35 AM,46.8,45.0,93,29.99,10.0,NW,6.9,-,N/A,Rain,Rain,320,2012-10-06 08:35:00
4:55 AM,46.6,44.2,92,29.99,10.0,WNW,5.8,9.2,N/A,Rain,Light Rain,300,2012-10-06 08:55:00
5:15 AM,46.4,43.9,91,29.99,10.0,NNW,6.9,-,N/A,,Light Drizzle,330,2012-10-06 09:15:00
5:35 AM,46.2,43.7,91,30.00,10.0,NW,4.6,-,N/A,,Overcast,320,2012-10-06 09:35:00
5:55 AM,46.0,43.5,91,30.02,10.0,WNW,9.2,-,N/A,,Overcast,300,2012-10-06 09:55:00
6:35 AM,45.7,43.2,91,30.02,10.0,NW,4.6,-,N/A,,Overcast,310,2012-10-06 10:35:00
6:55 AM,45.5,43.2,92,30.03,10.0,WNW,4.6,-,N/A,,Overcast,290,2012-10-06 10:55:00
7:15 AM,45.9,43.7,92,30.04,10.0,WNW,5.8,-,N/A,,Overcast,290,2012-10-06 11:15:00
7:35 AM,45.5,43.5,93,30.04,10.0,WNW,9.2,-,N/A,,Overcast,290,2012-10-06 11:35:00
8:15 AM,45.1,42.4,90,30.06,10.0,West,5.8,-,N/A,,Mostly Cloudy,280,2012-10-06 12:15:00
8:35 AM,44.6,41.9,90,30.08,10.0,West,8.1,-,N/A,,Scattered Clouds,280,2012-10-06 12:35:00
8:55 AM,44.6,41.2,88,30.09,10.0,WNW,8.1,-,N/A,,Scattered Clouds,290,2012-10-06 12:55:00
9:15 AM,44.6,40.6,86,30.10,10.0,WNW,9.2,-,N/A,,Scattered Clouds,300,2012-10-06 13:15:00
9:35 AM,45.0,40.3,84,30.10,10.0,WNW,6.9,-,N/A,,Mostly Cloudy,300,2012-10-06 13:35:00
9:55 AM,44.8,40.3,84,30.10,10.0,WNW,9.2,-,N/A,,Mostly Cloudy,290,2012-10-06 13:55:00
10:15 AM,45.5,39.6,80,30.11,10.0,WNW,10.4,-,N/A,,Scattered Clouds,290,2012-10-06 14:15:00
10:35 AM,46.6,39.4,76,30.11,10.0,WNW,10.4,-,N/A,,Scattered Clouds,300,2012-10-06 14:35:00
10:55 AM,48.2,39.9,73,30.11,10.0,West,5.8,-,N/A,,Clear,260,2012-10-06 14:55:00
11:15 AM,48.9,39.4,70,30.11,10.0,WNW,6.9,-,N/A,,Clear,300,2012-10-06 15:15:00
11:35 AM,50.0,39.2,66,30.11,10.0,West,9.2,-,N/A,,Clear,280,2012-10-06 15:35:00
11:55 AM,51.3,38.3,61,30.11,10.0,West,10.4,-,N/A,,Clear,280,2012-10-06 15:55:00
12:15 PM,51.8,37.4,58,30.11,10.0,West,10.4,-,N/A,,Clear,260,2012-10-06 16:15:00
12:35 PM,52.7,37.2,56,30.11,10.0,WSW,4.6,-,N/A,,Clear,250,2012-10-06 16:35:00
12:55 PM,53.8,37.0,53,30.11,10.0,WSW,4.6,-,N/A,,Clear,240,2012-10-06 16:55:00
1:15 PM,54.9,37.6,52,30.10,10.0,West,11.5,16.1,N/A,,Scattered Clouds,270,2012-10-06 17:15:00
1:35 PM,55.0,36.1,49,30.10,10.0,West,5.8,-,N/A,,Clear,280,2012-10-06 17:35:00
1:55 PM,55.2,34.5,46,30.09,10.0,WNW,6.9,-,N/A,,Clear,300,2012-10-06 17:55:00
2:15 PM,56.1,35.1,45,30.07,10.0,NNW,4.6,-,N/A,,Clear,330,2012-10-06 18:15:00
2:35 PM,57.2,34.2,42,30.07,10.0,WNW,11.5,16.1,N/A,,Clear,300,2012-10-06 18:35:00
2:55 PM,57.6,34.5,42,30.06,10.0,WSW,8.1,-,N/A,,Clear,250,2012-10-06 18:55:00
3:15 PM,57.7,33.8,41,30.06,10.0,WSW,3.5,-,N/A,,Clear,250,2012-10-06 19:15:00
3:35 PM,58.3,33.4,39,30.06,10.0,WSW,4.6,-,N/A,,Clear,250,2012-10-06 19:35:00
3:55 PM,57.4,32.2,39,30.05,10.0,NW,3.5,-,N/A,,Clear,310,2012-10-06 19:55:00
4:15 PM,58.3,32.7,38,30.05,10.0,Calm,Calm,-,N/A,,Clear,0,2012-10-06 20:15:00
4:35 PM,57.9,32.2,38,30.04,10.0,WNW,5.8,-,N/A,,Clear,290,2012-10-06 20:35:00
4:55 PM,57.2,32.2,39,30.04,10.0,West,5.8,-,N/A,,Clear,260,2012-10-06 20:55:00
5:15 PM,57.2,32.7,40,30.04,10.0,West,5.8,-,N/A,,Clear,260,2012-10-06 21:15:00
5:35 PM,56.7,33.4,42,30.04,10.0,WSW,4.6,-,N/A,,Clear,250,2012-10-06 21:35:00
5:55 PM,56.7,33.4,42,30.04,10.0,WNW,3.5,-,N/A,,Clear,290,2012-10-06 21:55:00
6:15 PM,56.3,34.9,45,30.06,10.0,West,4.6,-,N/A,,Clear,260,2012-10-06 22:15:00
6:35 PM,55.4,34.7,46,30.06,10.0,West,4.6,-,N/A,,Clear,270,2012-10-06 22:35:00
6:55 PM,54.5,35.1,48,30.07,10.0,West,3.5,-,N/A,,Clear,280,2012-10-06 22:55:00
7:15 PM,54.0,34.7,48,30.08,10.0,WNW,3.5,-,N/A,,Clear,300,2012-10-06 23:15:00
7:35 PM,53.6,34.2,48,30.08,10.0,Calm,Calm,-,N/A,,Clear,0,2012-10-06 23:35:00
7:55 PM,51.3,38.1,61,30.08,10.0,Calm,Calm,-,N/A,,Clear,0,2012-10-06 23:55:00
8:15 PM,51.1,37.2,59,30.09,10.0,Calm,Calm,-,N/A,,Clear,0,2012-10-07 00:15:00
8:35 PM,50.0,40.5,70,30.09,10.0,Calm,Calm,-,N/A,,Clear,0,2012-10-07 00:35:00
8:55 PM,49.5,40.1,70,30.10,10.0,Calm,Calm,-,N/A,,Clear,0,2012-10-07 00:55:00
9:15 PM,47.8,41.4,78,30.11,10.0,West,3.5,-,N/A,,Clear,260,2012-10-07 01:15:00
9:35 PM,46.8,39.9,77,30.11,10.0,Calm,Calm,-,N/A,,Clear,0,2012-10-07 01:35:00
9:55 PM,48.4,37.4,66,30.11,10.0,Calm,Calm,-,N/A,,Clear,0,2012-10-07 01:55:00
10:15 PM,47.5,38.8,72,30.11,10.0,Calm,Calm,-,N/A,,Clear,0,2012-10-07 02:15:00
10:35 PM,47.7,39.4,73,30.11,10.0,Calm,Calm,-,N/A,,Clear,0,2012-10-07 02:35:00
10:55 PM,47.5,40.6,77,30.11,10.0,Calm,Calm,-,N/A,,Clear,0,2012-10-07 02:55:00
11:15 PM,48.2,39.6,72,30.11,10.0,Calm,Calm,-,N/A,,Scattered Clouds,0,2012-10-07 03:15:00
11:35 PM,47.8,41.2,78,30.11,10.0,Calm,Calm,-,N/A,,Mostly Cloudy,0,2012-10-07 03:35:00
11:55 PM,48.2,38.8,70,30.10,10.0,Calm,Calm,-,N/A,,Overcast,0,2012-10-07 03:55:00